Home   Weather   Ocala   Past weeks
Flag for USA

Past Weather in Ocala, Florida, USA — Yesterday and Last 2 Weeks

Now
78 °F

Light rain. Cloudy.


Feels Like: 81 °F
Forecast: 81 / 71 °F
Wind: 10 mph from Southwest

Location: Ocala Municipal

Current Time: Oct 19, 2019 at 7:38:03 pm

Latest Report: Oct 19, 2019 at 6:51 pm


Visibility: 10 mi

Pressure: 29.74 "Hg

Humidity: 93%

Dew Point: 76 °F

Location of OcalaLocation

Past Weather in Ocala — Graph

°F

Ocala Temperature Yesterday

Maximum temperature yesterday: 74 °F (at 1:51 pm)
Minimum temperature yesterday: 60 °F (at 12:51 am)
Average temperature yesterday: 67 °F

High & Low Weather Summary for the Past Weeks

 TemperatureHumidityPressure
High90 °F (Oct 5, 1:51 pm)100% (Oct 5, 3:51 am)30.10 "Hg (Oct 5, 3:51 am)
Low60 °F (Oct 18, 12:51 am)43% (Oct 11, 12:51 pm)29.71 "Hg (Oct 19, 5:15 pm)
Average75 °F82%29.98 "Hg
* Reported Oct 4 6:51 pm — Oct 19 6:13 pm, Ocala. Weather by CustomWeather, © 2019

Note: Actual official high and low records may vary slightly from our data, if they occured in-between our weather recording intervals... More about our weather records

Advertising

Ocala Weather History for the Previous 24 Hours

Scroll right to see more
 ConditionsComfort  
Time TempWeatherWind HumidityBarometerVisibility
6:13 pm
Sat, Oct 19
79 °FLight rain. Cloudy.10 mph89%29.72 "Hg10 mi
5:51 pm77 °FLight rain. Mostly cloudy.8 mph94%29.72 "Hg10 mi
5:31 pm77 °FLight rain. Mostly cloudy.10 mph94%29.71 "Hg7 mi
5:15 pm79 °FRain. Fog.10 mph89%29.71 "Hg6 mi
4:00 pm81 °FBroken clouds.16 mph79%29.72 "Hg10 mi
2:51 pm80 °FMostly cloudy.13 mph79%29.74 "Hg10 mi
2:04 pm81 °FPartly sunny.14 mph74%29.75 "Hg10 mi
12:51 pm79 °FOvercast.17 mph79%29.80 "Hg10 mi
11:51 am77 °FMostly cloudy.12 mph85%29.82 "Hg10 mi
11:22 am75 °FCloudy.13 mph89%29.83 "Hg10 mi
10:51 am75 °FCloudy.9 mph90%29.83 "Hg10 mi
10:44 am75 °FCloudy.9 mph89%29.83 "Hg10 mi
9:51 am74 °FMostly cloudy.9 mph97%29.85 "Hg10 mi
9:35 am73 °FMore clouds than sun.8 mph94%29.84 "Hg10 mi
8:51 am73 °FLight rain. Low clouds.10 mph100%29.84 "Hg9 mi
7:58 am73 °FLight rain. Fog.8 mph94%29.82 "Hg6 mi
6:51 am72 °FLight rain. Mostly cloudy.10 mph100%29.84 "Hg7 mi
6:41 am72 °FRain. Fog.8 mph100%29.84 "Hg4 mi
6:22 am72 °FLight rain. Overcast.7 mph100%29.84 "Hg10 mi
5:51 am72 °FRain. Fog.7 mph100%29.84 "Hg6 mi
4:51 am72 °FLight rain. Mostly cloudy.7 mph100%29.83 "Hg10 mi
3:51 am72 °FRain. Mostly cloudy.8 mph100%29.84 "Hg8 mi
3:33 am72 °FLight rain. Mostly cloudy.9 mph100%29.84 "Hg10 mi
3:21 am72 °FLight rain. Mostly cloudy.8 mph100%29.84 "Hg10 mi
2:35 am72 °FRain. Fog.8 mph100%29.86 "Hg5 mi
1:51 am71 °FLight rain. Mostly cloudy.8 mph100%29.86 "Hg10 mi
1:31 am72 °FLight rain. Overcast.12 mph100%29.87 "Hg10 mi
12:54 am70 °FRain. Fog.9 mph100%29.89 "Hg3 mi
11:51 pm
Fri, Oct 18
68 °FLight rain. Mostly cloudy.7 mph96%29.89 "Hg10 mi
10:51 pm67 °FLight rain. Passing clouds.3 mph97%29.93 "Hg10 mi
9:51 pm68 °FLight rain. Mostly cloudy.5 mph93%29.91 "Hg10 mi
8:51 pm69 °FPartly cloudy.9 mph87%29.89 "Hg10 mi
7:51 pm68 °FLight rain. Clear.8 mph93%29.90 "Hg10 mi
Weather by CustomWeather, © 2019

See weather overview